Location: Newark
(58.8333°N, 23.5833°E)
Time: 19:39:25
(UTC+00:00)

METEOR M2 - Pass Details

Date: 12 December 2019
Orbit: 819 x 827 km, 98.5° (Epoch: 25 January)

Event Time Altitude Azimuth Distance (km) Brightness Sun altitude
Rises 05:38:05 0° 23° (NNE) 3,367 ? -10.0°
Reaches altitude 10° 05:41:20 10° 43° (NE) 2,428 ? -9.7°
Maximum altitude 05:44:47 17° 83° (E) 1,971 ? -9.3°
Drops below altitude 10° 05:48:12 10° 124° (ESE) 2,418 ? -8.9°
Sets 05:51:25 0° 144° (SE) 3,345 ? -8.5°
